Amateur Radio Satellites - All Passes

Search period start: 24 May 2013 03:05
Search period end: 25 May 2013 03:05
Location: Houston, 29.7630°N, 95.3630°W

Satellite Date Start Highest point End Downlink Frequencies (MHz)
Time Altitude Azimuth
RS-15 24 May 03:11:29 03:22:17 66° 248° (WSW) 03:33:00 29.354 - 29.394 USB, Beacon 29.352 USB
Oscar 16 24 May 03:14:04 03:19:14 77° 284° (WNW) 03:24:21 437.025 USB, Beacon 2401.1428
AO-27 24 May 03:26:05 03:31:20 82° 284° (WNW) 03:36:33 436.795 MHz FM
MaSat-1 24 May 03:29:23 03:33:37 17° 299° (WNW) 03:37:29 437.345 MHz
ITAMSAT 1 24 May 03:32:26 03:37:39 73° 284° (WNW) 03:42:50 435.822 SSB
Gurwin Techsat 1B 24 May 03:59:06 04:02:59 20° 96° (E) 04:06:51 435.225 FM
Uosat F 24 May 04:01:22 04:05:31 26° 97° (E) 04:09:40 435.120 FM
AO-Echo 24 May 04:06:36 04:11:25 83° 102° (ESE) 04:16:21 ?
Uribyol 2 24 May 04:13:55 04:18:12 26° 290° (WNW) 04:22:28 436.500 FM
Oscar 19 24 May 04:14:45 04:18:36 22° 291° (WNW) 04:22:26 437.125 CW, 437.150 USB
Saudisat 1A 24 May 04:43:13 04:46:39 22° 110° (ESE) 04:50:08 436.775 MHz
AO-7 24 May 05:08:12 05:14:36 24° 97° (E) 05:20:57 29.400 - 29.500 MHz
TMSAT-1 24 May 05:15:02 05:20:22 84° 103° (ESE) 05:25:40 436.925 FM
Gurwin Techsat 1B 24 May 05:38:09 05:42:58 36° 288° (WNW) 05:47:47 435.225 FM
Uosat F 24 May 05:40:02 05:44:11 27° 290° (WNW) 05:48:20 435.120 FM
PCSat 24 May 06:01:38 06:03:31 12° 103° (ESE) 06:05:24 145.825 MHz
STRAND 1 24 May 06:10:52 06:14:45 23° 69° (ENE) 06:18:38 ?
Saudisat 1A 24 May 06:22:12 06:26:08 29° 303° (WNW) 06:30:09 436.775 MHz
Oscar 10/S400 24 May 06:31:57 09:11:58 57° 260° (W) 17:02:37 145.825 - 145.975 CW/USB, Beacon 145.810 USB
Sapphire 24 May 06:31:59 06:36:18 25° 106° (ESE) 06:40:37 437.095 MHz 1200 baud AX-25 AFSK
AO-7 24 May 06:59:28 07:07:38 59° 291° (WNW) 07:15:46 29.400 - 29.500 MHz
KITSAT 1 24 May 07:12:55 07:17:37 16° 47° (NE) 07:22:18 435.175 FM
PCSat 24 May 07:40:58 07:46:18 63° 296° (WNW) 07:51:41 145.825 MHz
STRAND 1 24 May 07:49:14 07:53:43 31° 262° (W) 07:58:13 ?
Hamsat 24 May 07:50:51 07:54:51 35° 98° (E) 07:58:51 145.90 MHz
SO-50 24 May 08:08:51 08:13:28 47° 113° (ESE) 08:18:02 436.795 FM
Sapphire 24 May 08:14:42 08:19:30 33° 300° (WNW) 08:24:21 437.095 MHz 1200 baud AX-25 AFSK
KITSAT 1 24 May 09:05:56 09:14:06 85° 65° (ENE) 09:22:13 435.175 FM
SO-67 24 May 09:08:08 09:11:43 71° 282° (WNW) 09:15:16 435.3500 MHz FM
HO-68 24 May 09:16:16 09:18:25 11° 93° (E) 09:20:35 435.675 MHz FM
JAS-1B 24 May 09:25:46 09:31:32 69° 285° (WNW) 09:37:10 435.800 - 435.900 CW/SSB
Hamsat 24 May 09:28:05 09:30:35 15° 290° (WNW) 09:33:06 145.90 MHz
ISS 24 May 09:35:45 09:38:36 25° 40° (NE) 09:41:26 145.800 FM
PANSAT 24 May 09:47:18 09:50:01 18° 156° (SSE) 09:52:44 not established
SO-50 24 May 09:51:19 09:54:17 16° 307° (NW) 09:57:14 436.795 FM
JAS-2 24 May 10:19:13 10:24:48 30° 95° (E) 10:29:49 435.800 - 435.900 CW/SSB, 435.910 FM
HO-68 24 May 10:59:30 11:06:41 87° 286° (WNW) 11:13:52 435.675 MHz FM
UOSAT-12 24 May 11:00:42 11:05:04 52° 114° (ESE) 11:09:28 437.025 FM, 437.400 FM
KITSAT 1 24 May 11:04:39 11:08:28 14° 259° (WSW) 11:12:17 435.175 FM
OPAL 24 May 11:10:33 11:14:57 31° 100° (E) 11:19:18 ?
ISS 24 May 11:12:37 11:15:11 20° 233° (SW) 11:17:43 145.800 FM
PANSAT 24 May 11:26:15 11:30:02 49° 167° (SSE) 11:33:49 not established
Oscar 11 24 May 11:28:49 11:33:04 53° 285° (WNW) 11:37:19 145.825 FM, Beacon 2401.500 USB
JAS-2 24 May 12:04:07 12:09:44 31° 292° (WNW) 12:14:49 435.800 - 435.900 CW/SSB, 435.910 FM
MaSat-1 24 May 12:18:31 12:21:22 76° 250° (WSW) 12:23:52 437.345 MHz
UOSAT-12 24 May 12:43:21 12:45:30 13° 309° (NW) 12:47:40 437.025 FM, 437.400 FM
OPAL 24 May 12:49:51 12:53:36 22° 293° (WNW) 12:57:20 ?
HO-68 24 May 12:50:37 12:53:21 13° 301° (WNW) 12:56:05 435.675 MHz FM
PANSAT 24 May 13:06:24 13:10:18 74° 180° (S) 13:14:11 not established
Oscar 19 24 May 13:46:15 13:50:32 27° 70° (ENE) 13:54:50 437.125 CW, 437.150 USB
Uribyol 2 24 May 13:47:00 13:51:02 24° 69° (ENE) 13:55:05 436.500 FM
Oscar 16 24 May 14:24:53 14:30:05 84° 77° (ENE) 14:35:18 437.025 USB, Beacon 2401.1428
AO-27 24 May 14:38:16 14:43:25 82° 76° (ENE) 14:48:37 436.795 MHz FM
ITAMSAT 1 24 May 14:44:26 14:49:36 89° 256° (WSW) 14:54:48 435.822 SSB
PANSAT 24 May 14:46:47 14:50:33 49° 193° (SSW) 14:54:20 not established
Saudisat 1A 24 May 14:54:48 14:59:05 41° 59° (ENE) 15:03:15 436.775 MHz
Uosat F 24 May 15:09:41 15:13:11 19° 69° (ENE) 15:16:40 435.120 FM
AO-Echo 24 May 15:13:53 15:18:39 55° 75° (ENE) 15:23:19 ?
Gurwin Techsat 1B 24 May 15:14:58 15:18:31 19° 68° (ENE) 15:22:04 435.225 FM
RS-15 24 May 15:15:01 15:25:24 35° 106° (ESE) 15:35:27 29.354 - 29.394 USB, Beacon 29.352 USB
Oscar 19 24 May 15:25:23 15:29:44 27° 263° (W) 15:34:07 437.125 CW, 437.150 USB
Uribyol 2 24 May 15:25:46 15:30:18 31° 262° (W) 15:34:52 436.500 FM
AO-7 24 May 16:02:01 16:07:32 20° 59° (ENE) 16:13:03 29.400 - 29.500 MHz
PANSAT 24 May 16:27:51 16:30:34 18° 204° (SSW) 16:33:17 not established
TMSAT-1 24 May 16:29:47 16:35:02 71° 76° (ENE) 16:40:19 436.925 FM
PCSat 24 May 16:35:30 16:40:12 29° 59° (ENE) 16:44:51 145.825 MHz
Saudisat 1A 24 May 16:36:05 16:38:20 14° 252° (WSW) 16:40:35 436.775 MHz
Uosat F 24 May 16:47:08 16:51:41 35° 261° (W) 16:56:15 435.120 FM
Gurwin Techsat 1B 24 May 16:53:08 16:58:07 42° 261° (W) 17:03:08 435.225 FM
AO-Echo 24 May 16:56:35 16:57:39 11° 266° (W) 16:58:42 ?
Sapphire 24 May 17:08:06 17:13:26 56° 64° (ENE) 17:18:44 437.095 MHz 1200 baud AX-25 AFSK
RS-15 24 May 17:25:23 17:37:14 58° 301° (WNW) 17:48:41 29.354 - 29.394 USB, Beacon 29.352 USB
AO-7 24 May 17:51:11 17:59:26 74° 255° (WSW) 18:07:46 29.400 - 29.500 MHz
PCSat 24 May 18:18:55 18:23:29 28° 253° (WSW) 18:28:02 145.825 MHz
SO-50 24 May 18:27:08 18:31:38 80° 244° (WSW) 18:36:05 436.795 FM
STRAND 1 24 May 18:29:05 18:31:03 12° 94° (E) 18:33:01 ?
Hamsat 24 May 18:41:25 18:43:04 12° 69° (ENE) 18:44:42 145.90 MHz
Sapphire 24 May 18:53:39 18:56:18 14° 256° (WSW) 18:58:57 437.095 MHz 1200 baud AX-25 AFSK
SO-67 24 May 19:39:25 19:41:38 16° 72° (ENE) 19:43:51 435.3500 MHz FM
UOSAT-12 24 May 19:39:30 19:39:51 10° 49° (NE) 19:40:13 437.025 FM, 437.400 FM
RS-15 24 May 19:47:11 19:52:45 14° 326° (NNW) 19:58:14 29.354 - 29.394 USB, Beacon 29.352 USB
JAS-1B 24 May 20:00:41 20:09:57 62° 73° (ENE) 20:17:55 435.800 - 435.900 CW/SSB
STRAND 1 24 May 20:05:27 20:10:29 56° 286° (WNW) 20:15:31 ?
Hamsat 24 May 20:14:47 20:18:43 39° 261° (W) 20:22:42 145.90 MHz
SO-67 24 May 21:12:13 21:14:53 20° 264° (W) 21:17:34 435.3500 MHz FM
UOSAT-12 24 May 21:15:54 21:20:29 74° 244° (WSW) 21:25:04 437.025 FM, 437.400 FM
HO-68 24 May 21:21:43 21:28:10 38° 68° (ENE) 21:34:37 435.675 MHz FM
KITSAT 1 24 May 21:34:30 21:40:16 22° 104° (ESE) 21:46:03 435.175 FM
JAS-1B 24 May 21:53:09 22:00:25 25° 263° (W) 22:07:04 435.800 - 435.900 CW/SSB
JAS-2 24 May 22:05:49 22:13:19 62° 73° (ENE) 22:21:02 435.800 - 435.900 CW/SSB, 435.910 FM
Oscar 11 24 May 22:18:01 22:22:13 54° 75° (ENE) 22:26:27 145.825 FM, Beacon 2401.500 USB
OPAL 24 May 22:19:44 22:24:13 30° 69° (ENE) 22:28:41 ?
HO-68 24 May 23:09:36 23:15:46 32° 261° (W) 23:21:58 435.675 MHz FM
KITSAT 1 24 May 23:27:03 23:34:58 62° 298° (WNW) 23:42:59 435.175 FM
JAS-2 24 May 23:52:56 23:58:34 22° 267° (W) 00:04:23 435.800 - 435.900 CW/SSB, 435.910 FM
OPAL 24 May 23:58:49 00:03:01 25° 261° (W) 00:07:12 ?
RS-15 25 May 00:24:27 00:32:37 23° 43° (NE) 00:40:36 29.354 - 29.394 USB, Beacon 29.352 USB
ISS 25 May 00:38:26 00:40:08 13° 125° (SE) 00:41:49 145.800 FM
MaSat-1 25 May 00:59:53 01:06:40 42° 107° (ESE) 01:12:34 437.345 MHz
KITSAT 1 25 May 01:29:59 01:32:02 11° 318° (NW) 01:34:05 435.175 FM
Oscar 19 25 May 02:05:02 02:07:59 15° 94° (E) 02:10:54 437.125 CW, 437.150 USB
Uribyol 2 25 May 02:06:58 02:09:33 14° 94° (E) 02:12:06 436.500 FM
ISS 25 May 02:13:31 02:16:34 34° 318° (NW) 02:19:37 145.800 FM
RS-15 25 May 02:35:21 02:46:23 87° 245° (WSW) 02:57:17 29.354 - 29.394 USB, Beacon 29.352 USB
MaSat-1 25 May 02:42:40 02:48:47 30° 295° (WNW) 02:54:05 437.345 MHz
Oscar 16 25 May 02:43:05 02:48:05 49° 100° (E) 02:53:02 437.025 USB, Beacon 2401.1428

Developed and maintained by Chris Peat, Heavens-Above GmbH. Please read the updated FAQ before sending e-mail. Imprint. DLR
